Regional Weather Roundup
Issued by NWS

Home | Current Version | Previous Version | Graphics & Text | Print | Product List | Glossary On
Versions: 1 2 3 4 5 6 7 8 9 10 11 12 13 14 15 16 17 18 19 20 21 22 23 24 25 26 27 28 29 30 31 32 33 34 35 36 37 38 39 40 41 42 43 44 45 46 47 48 49 50
000
ASUS43 KLOT 282204
RWRIL

ILLINOIS REGIONAL WEATHER ROUNDUP
NATIONAL WEATHER SERVICE CHICAGO/ROMEOVILLE IL
500 PM CDT WED SEP 28 2016

NOTE: "FAIR" INDICATES FEW OR NO CLOUDS BELOW 12,000 FEET WITH NO
SIGNIFICANT WEATHER AND/OR OBSTRUCTIONS TO VISIBILITY.

* THESE STATIONS ARE NOT UNDER NWS QUALITY CONTROL. THEY ALSO MAY NOT
  REPORT WEATHER SUCH AS PRECIPITATION OR FOG.

ILZ001-002-007-009-015-016-024-282300-
NORTHWEST ILLINOIS

CITY           SKY/WX    TMP DP  RH WIND       PRES   REMARKS
MOLINE         CLOUDY    63  47  55 NW10      30.07R
STERLING*      CLOUDY    62  51  67 N13       30.06R
SAVANNA*       PTSUNNY   62  51  66 N12       30.08R
$$

ILZ003-004-008-010-011-017-018-282300-
NORTH CENTRAL ILLINOIS

CITY           SKY/WX    TMP DP  RH WIND       PRES   REMARKS
ROCKFORD       MOSUNNY   63  50  62 N12       30.07R
FREEPORT*      MOSUNNY   58  49  71 N9        30.08R
ROCHELLE*      MOSUNNY   60  49  66 N9        30.05R
$$

ILZ005-006-012>014-019>023-282300-
NORTHEAST ILLINOIS

CITY           SKY/WX    TMP DP  RH WIND       PRES   REMARKS
CHICAGO-OHARE  CLOUDY    59  47  64 N17G25    30.00R
CHICAGO-MIDWAY CLOUDY    58  50  75 N14       29.99R
AURORA         CLOUDY    63  47  55 N15       30.02R
LANSING*       CLOUDY    56  54  92 NW10      29.98R
JOLIET*        RAIN      56  54  92 N6        30.02R
WAUKEGAN       CLOUDY    60  49  66 N9G20     30.02R
DUPAGE AIRPORT LGT RAIN  59  47  64 N15       30.01R
KANKAKEE*      CLOUDY    55  52  89 NW8       29.99S
WHEELING       CLOUDY    59  46  62 N12G25    30.03R
MORRIS*        LGT RAIN  60  49  66 CALM      30.01R
ROMEOVILLE*    LGT RAIN  54  54 100 CALM      30.02R
NORTHERLY ISL    N/A     61  52  72 N13         N/A
$$

LMZ740>746-282300-
SOUTHERN LAKE MICHIGAN

STATION/POSITION SKY/WX   TEMP    WIND        PRES    VSBY  WAVE
                          AIR SEA DIR/SP/G                  HT/PER
                          (F)     (DEG/KT/KT) (MB)    (MI)  (FT/S)
SOUTHERN BUOY              64 69   50/ 19/ 23 1014.3          4/ 5
WILMETTE HARBOR            58 58   20/ 19/ 27   N/A           7/ 5
HARRISON CRIB              63      30/ 20/ 22   N/A
BURNHAM HARBOR             62     350/  8/ 16   N/A
CALUMET HARBOR             57     330/  3/  7 1014.6R
BURNS HARBOR               61      40/ 11/ 14 1014.9R
MICHIGAN CITY              59      10/  9/ 10   N/A
MICHIGAN CITY 6N           61 66   30/ 10/ 14   N/A           3/ 4
ST. JOSEPH                 62 65   30/ 14/ 17 1014.7R         2/ 4
$$

ILZ025>027-034>036-040-047-049-050-058-095>099-282300-
WEST-CENTRAL ILLINOIS

CITY           SKY/WX    TMP DP  RH WIND       PRES   REMARKS
QUINCY         CLOUDY    61  47  59 N14       30.10R
GALESBURG*     CLOUDY    61  48  62 N14G20    30.07R
MACOMB*        CLOUDY    62  48  60 NW13      30.09R
JACKSONVILLE*  CLOUDY    61  47  59 NW12      30.07R
PITTSFIELD*    CLOUDY    60  48  64 NW10      30.10R
$$

ILZ028>032-037-038-041>044-048-051>054-059>061-282300-
CENTRAL ILLINOIS

CITY           SKY/WX    TMP DP  RH WIND       PRES   REMARKS
PONTIAC        CLOUDY    64  47  55 N14       30.01R
DECATUR        CLOUDY    60  47  61 NW13G21   30.02R
PEORIA         CLOUDY    59  50  72 NW7       30.04R
LACON*         CLOUDY    61  46  56 N9        30.03R
LINCOLN*       CLOUDY    60  51  72 NW8       30.03R
SPRINGFIELD    CLOUDY    61  48  62 NW10G17   30.05R
TAYLORVILLE    CLOUDY    60  46  61 NW14      30.04R
$$

ILZ033-039-045-046-055>057-062-063-282300-
EAST-CENTRAL ILLINOIS

CITY           SKY/WX    TMP DP  RH WIND       PRES   REMARKS
CHAMPAIGN      CLOUDY    59  48  67 NW10      29.99R
RANTOUL*       LGT RAIN  60  51  73 N6        29.98R
MATTOON        CLOUDY    59  47  64 N17       29.99R
PARIS*         CLOUDY    60  46  59 NW3       29.98R
$$

ILZ079-100>102-282300-
SOUTHWEST ILLINOIS

CITY           SKY/WX    TMP DP  RH WIND       PRES   REMARKS
BELLEVILLE     MOSUNNY   64  46  51 N8        30.04R
CAHOKIA*       PTSUNNY   66  44  45 N16       30.05R
SPARTA*        CLOUDY    64  47  54 N10G17    30.04R
$$

ILZ064>066-069>071-074>076-080>082-084>086-088>090-092>094-282300-
SOUTH-CENTRAL ILLINOIS

CITY           SKY/WX    TMP DP  RH WIND       PRES   REMARKS
CARBONDALE     MOSUNNY   65  46  50 N12G24    30.01R
EFFINGHAM*     PTSUNNY   62  47  58 W12G22    30.02R
MARION         PTSUNNY   66  46  48 NW17      30.01R
MT. VERNON     CLOUDY    63  45  51 N6        30.02R
CENTRALIA*     CLOUDY    64  47  55 NW13G21   30.02R
SALEM*         CLOUDY    63  45  51 N13       30.02R
METROPOLIS*    PTSUNNY   69  47  46 N14G20    29.98R
$$

ILZ067-068-072-073-078-083-087-091-282300-
SOUTHEAST ILLINOIS

CITY           SKY/WX    TMP DP  RH WIND       PRES   REMARKS
LAWRENCEVILLE  SUNNY     64  44  48 NW22      29.96R
FLORA*         PTSUNNY   65  46  50 NW9G20    30.01R
FAIRFIELD*     CLOUDY    63  46  53 N12G17    29.99R
HARRISBURG*    CLOUDY    65  47  52 NW13      29.99R
ROBINSON*      MOSUNNY   63  45  52 N16G24    29.96R
CARMI*         CLOUDY    64  46  53 NW17G25   29.98R
$$

ABBREVIATIONS USED IN REMARKS
   TC - TEMPERATURE IN CELSIUS
  WCI - WIND CHILL INDEX
   HX - HEAT INDEX
  VSB - VISIBILITY
$$




USA.gov is the U.S. government's official web portal to all federal, state and local government web resources and services.